Weather History for McCall, ID

Change the Weather History Date:

Friday, February 1, 2013

  Actual Average Record
Temperature  
Mean Temperature 30 °F 21 °F  
Max Temperature 40 °F 30 °F 49 °F (1934)
Min Temperature 19 °F 11 °F -29 °F (1956)
Degree Days  
Heating Degree Days 35 44  
Month to date heating degree days 35 44  
Since 1 July heating degree days 4888 5518  
Cooling Degree Days 0 0  
Month to date cooling degree days 0 0  
Year to date cooling degree days 0 0  
Moisture  
Dew Point 28 °F    
Average Humidity 77    
Maximum Humidity 100    
Minimum Humidity 54    
Precipitation  
Precipitation T in 0.07 in 0.66 in (1963)
Month to date precipitation T 0.07  
Year to date precipitation 2.90 1.80  
Sea Level Pressure  
Sea Level Pressure 30.28 in    
Wind  
Wind Speed 2 mph (NW)    
Max Wind Speed 9 mph    
Max Gust Speed 12 mph    
Visibility 7 miles    
Events Snow    
T = Trace of Precipitation, MM = Missing Value Source: NWS Daily Summary

Daily Weather History Graph

Daily Weather History Graph

Search for Another Location

Airport:

Trip Planner

Search our weather history database for the weather conditions in past years. The results will help you decide how hot, cold, wet, or windy it might be!

Date:

Astronomy

Feb. 01, 2013 Rise Set
Actual Time 8:03 AM MST 5:53 PM MST
Civil Twilight 7:32 AM MST 6:24 PM MST
Nautical Twilight 6:57 AM MST 6:59 PM MST
Astronomical Twilight 6:22 AM MST 7:33 PM MST
Moon No Moon Rise 10:21 AM MST (2/1)
Length of Visible Light 10h 51m
Length of Day
9h 49m
Waning Gibbous, 69% of the Moon is Illuminated
Feb 1
Waning Gibbous
Feb 3
Last Quarter
Feb 10
New
Feb 17
First Quarter
Feb 25
Full

Hourly Weather History & Observations

Time (MST) Temp. Windchill Dew Point Humidity Pressure Visibility Wind Dir Wind Speed Gust Speed Precip Events Conditions
12:02 AM 33.8 °F - 30.2 °F 87% 30.19 in 5.0 mi Calm Calm - N/A   Overcast
12:26 AM 32.0 °F - 30.2 °F 93% 30.19 in 10.0 mi Calm Calm - N/A   Overcast
12:51 AM 32.0 °F - 30.9 °F 96% 30.26 in 6.0 mi Calm Calm - N/A   Overcast
1:44 AM 32.0 °F - 30.2 °F 93% 30.19 in 4.0 mi Calm Calm - N/A   Overcast
1:51 AM 30.9 °F - 30.0 °F 96% 30.27 in 3.0 mi Calm Calm - N/A   Overcast
2:23 AM 30.2 °F - 30.2 °F 100% 30.19 in 2.0 mi Calm Calm - N/A   Overcast
2:51 AM 32.0 °F - 30.0 °F 92% 30.27 in 3.0 mi Calm Calm - N/A   Overcast
2:54 AM 30.2 °F - 30.2 °F 100% 30.20 in 2.5 mi Calm Calm - N/A   Overcast
3:03 AM 30.2 °F - 30.2 °F 100% 30.20 in 1.5 mi Calm Calm - N/A   Overcast
3:11 AM 30.2 °F - 30.2 °F 100% 30.20 in 3.0 mi Calm Calm - N/A   Overcast
3:51 AM 30.9 °F - 30.0 °F 96% 30.26 in 7.0 mi Calm Calm - N/A   Overcast
4:07 AM 32.0 °F - 30.2 °F 93% 30.19 in 5.0 mi Calm Calm - N/A   Overcast
4:25 AM 32.0 °F - 30.2 °F 93% 30.19 in 10.0 mi Calm Calm - N/A   Overcast
4:44 AM 30.2 °F - 30.2 °F 100% 30.19 in 1.8 mi Calm Calm - N/A   Overcast
4:51 AM 32.0 °F - 30.0 °F 92% 30.26 in 1.8 mi Calm Calm - N/A   Overcast
4:54 AM 32.0 °F - 30.2 °F 93% 30.19 in 3.0 mi Calm Calm - N/A   Overcast
5:15 AM 32.0 °F - 30.2 °F 93% 30.20 in 10.0 mi Calm Calm - N/A   Overcast
5:51 AM 30.9 °F - 30.0 °F 96% 30.27 in 2.5 mi Calm Calm - 0.00 in Snow Light Snow
6:00 AM 30.2 °F - 30.2 °F 100% 30.20 in 6.0 mi Calm Calm - 0.00 in Snow Light Snow
6:18 AM 30.2 °F - 30.2 °F 100% 30.20 in 10.0 mi Calm Calm - 0.00 in   Overcast
6:51 AM 30.9 °F - 28.9 °F 92% 30.28 in 10.0 mi Calm Calm - 0.00 in   Overcast
7:47 AM 26.6 °F - 26.6 °F 100% 30.21 in 10.0 mi Calm Calm - N/A   Partly Cloudy
7:51 AM 27.0 °F - 26.1 °F 96% 30.30 in 8.0 mi Calm Calm - N/A   Partly Cloudy
8:12 AM 28.4 °F - 26.6 °F 93% 30.22 in 10.0 mi Calm Calm - N/A   Mostly Cloudy
8:51 AM 32.0 °F - 28.9 °F 88% 30.31 in 10.0 mi Calm Calm - N/A   Overcast
9:14 AM 28.4 °F 24.6 °F 26.6 °F 93% 30.24 in 10.0 mi SW 3.5 mph - N/A   Scattered Clouds
9:51 AM 30.0 °F 26.5 °F 28.0 °F 92% 30.33 in 10.0 mi SW 3.5 mph - N/A   Partly Cloudy
10:51 AM 30.0 °F - 28.0 °F 92% 30.35 in 10.0 mi Calm Calm - N/A   Partly Cloudy
11:51 AM 34.0 °F 29.8 °F 28.0 °F 79% 30.34 in 10.0 mi SE 4.6 mph - N/A   Mostly Cloudy
12:51 PM 34.0 °F 29.8 °F 28.0 °F 79% 30.34 in 10.0 mi South 4.6 mph - N/A   Mostly Cloudy
1:51 PM 37.9 °F 34.4 °F 28.0 °F 68% 30.33 in 10.0 mi WSW 4.6 mph - N/A   Partly Cloudy
2:51 PM 37.0 °F - 27.0 °F 67% 30.33 in 10.0 mi Calm Calm - N/A   Overcast
3:04 PM 37.4 °F - 26.6 °F 65% 30.28 in 10.0 mi Calm Calm - N/A   Overcast
3:51 PM 37.0 °F - 25.0 °F 62% 30.35 in 10.0 mi Calm Calm - N/A   Scattered Clouds
4:51 PM 39.9 °F 37.8 °F 25.0 °F 55% 30.35 in 10.0 mi NNW 3.5 mph - N/A   Overcast
5:51 PM 33.1 °F 28.7 °F 27.0 °F 78% 30.38 in 10.0 mi NNW 4.6 mph - N/A   Clear
7:51 PM 27.0 °F - 24.1 °F 89% 30.44 in 10.0 mi Calm Calm - N/A   Clear
8:51 PM 26.1 °F 20.5 °F 24.1 °F 92% 30.43 in 10.0 mi North 4.6 mph - N/A   Clear
9:51 PM 27.0 °F 21.6 °F 21.9 °F 81% 30.45 in 10.0 mi North 4.6 mph - N/A   Clear
10:51 PM 21.9 °F 17.2 °F 19.9 °F 92% 30.48 in 10.0 mi North 3.5 mph - N/A   Clear
11:51 PM 19.9 °F - 16.0 °F 85% 30.49 in 10.0 mi Calm Calm - N/A   Clear